Weather in Petrovo

Russia / Ivanovo Oblast     57°04′56″N   42°56′24″E
temp.,
°C
wind,
m/s
gust,
m/s
humid.,
%
clouds,
%
prec.,
mm/h
press.,
hPa
HPBL,
m
27 february, sat
sat2700:000wnw51098100 1.0 994374
03:00−8nne4696100 1.7 996173
06:00−12nne61094100 0.8 999425
09:00−13nne71093100 1.0 1003535
12:00−13n6888100 0.1 1006585
15:00−12n5888100 0.1 1008620
18:00−12n3795100 0.1 1010215
21:00−15n349799 0.1 101240
28 february, sun
sun2800:00−17nnw339795 0.0 101233
03:00−19n339875 0.1 101428
06:00−20nnw33980 0.0 101429
09:00−18n24950 0.0 1015141
12:00−14n238645 0.0 1015307
15:00−11n248757 0.0 1016363
18:00−14nnw119699 0.0 101720
21:00−14nnw229797 0.0 101920
1 march, mon
mon100:00−15nw229872 0.0 102020
03:00−15w229776 0.1 102220
06:00−15wnw239765 0.0 102220
09:00−11wsw349677 0.1 1023105
12:00−5wsw369289 0.0 1021427
15:00−3wsw588995 0.1 1019727
18:00−3wsw51193100 0.1 1015541
21:00−1sw71296100 0.5 1012527
2 march, tue
tue200:000wsw71397100 1.8 1007611
03:00+1w71398100 2.8 1004585
06:000wnw61197100 1.3 1001592
09:00+1wnw71289100 1.6 1001717
12:000nw7129772 0.1 1001771
15:000nw8128785 0.2 1003913
18:00−1nw61289100 0.1 1004587
21:00−3wnw51096100 0.3 1005371
3 march, wed
wed300:00−4nw6139192 0.1 1005482
03:00−5nw7139396 0.1 1006555
06:00−6nw7149299 0.2 1008576
09:00−7nnw7138899 0.3 1010616
12:00−5nnw6108924 0.0 1012577
15:00−3nw6108558 0.1 1013834
18:00−5nw5118995 0.0 1014386
21:00−6nw5118998 0.1 1015345